Lexington, NE

12:10 PM CDT on July 22, 2017 (GMT -0500)
Kelly

Weather History for KLXN - November, 2013

Change the Weather History Date:

Thursday, November 14, 2013

  Actual Average Record
Temperature  
Mean Temperature 44 °F -  
Max Temperature 59 °F 48 °F 68 °F (2016)
Min Temperature 28 °F 24 °F -2 °F (2000)
Degree Days  
Heating Degree Days 20    
Moisture  
Dew Point 34 °F    
Average Humidity 72    
Maximum Humidity 95    
Minimum Humidity 36    
Precipitation  
Precipitation 0.00 in - - ()
Sea Level Pressure  
Sea Level Pressure 29.92 in    
Wind  
Wind Speed 5 mph (North)    
Max Wind Speed 17 mph    
Max Gust Speed 25 mph    
Visibility 10 miles    
Events      
Averages and records for this station are not official NWS values.
T = Trace of Precipitation, MM = Missing Value Source: NWS Daily Summary

Daily Weather History Graph

Daily Weather History Graph

Search for Another Location

Airport or City:

Trip Planner

Search our weather history database for the weather conditions in past years. The results will help you decide how hot, cold, wet, or windy it might be!

Date:

Astronomy

Nov. 14, 2013 Rise Set
Actual Time 7:25 AM CST 5:21 PM CST
Civil Twilight 6:55 AM CST 5:50 PM CST
Nautical Twilight 6:22 AM CST 6:23 PM CST
Astronomical Twilight 5:50 AM CST 6:56 PM CST
Moon 3:44 PM CST (11/14) 4:21 AM CST (11/14)
Length of Visible Light 10h 54m
Length of Day
9h 56m
Waxing Gibbous, 92% of the Moon is Illuminated
Nov 14
Waxing Gibbous
Nov 17
Full
Nov 25
Last Quarter
Dec 2
New
Dec 9
First Quarter

Hourly Weather History & Observations

Time (CST) Temp. Windchill Dew Point Humidity Pressure Visibility Wind Dir Wind Speed Gust Speed Precip Events Conditions
12:15 AM 41.9 °F 38.2 °F 35.4 °F 78% 29.91 in 10.0 mi South 5.8 mph - N/A   Clear
12:35 AM 42.4 °F 39.6 °F 36.5 °F 79% 29.90 in 10.0 mi South 4.6 mph - N/A   Clear
12:55 AM 34.9 °F - 31.6 °F 88% 29.90 in 10.0 mi Calm Calm - N/A   Clear
1:15 AM 33.4 °F 27.3 °F 31.6 °F 93% 29.90 in 10.0 mi North 6.9 mph - N/A   Clear
1:35 AM 33.8 °F - 31.8 °F 92% 29.90 in 10.0 mi Calm Calm - N/A   Clear
1:55 AM 33.8 °F - 31.6 °F 92% 29.89 in 10.0 mi Calm Calm - N/A   Clear
2:15 AM 33.1 °F 30.0 °F 31.3 °F 93% 29.89 in 10.0 mi NNE 3.5 mph - N/A   Clear
2:35 AM 32.0 °F - 30.4 °F 94% 29.90 in 10.0 mi Calm Calm - N/A   Clear
2:55 AM 32.2 °F - 30.9 °F 95% 29.90 in 10.0 mi Calm Calm - N/A   Clear
3:15 AM 32.5 °F - 30.9 °F 94% 29.89 in 10.0 mi Calm Calm - N/A   Clear
3:35 AM 32.0 °F 25.6 °F 30.2 °F 93% 29.90 in 10.0 mi NNW 6.9 mph - N/A   Clear
3:55 AM 33.3 °F 28.9 °F 32.0 °F 95% 29.89 in 10.0 mi North 4.6 mph - N/A   Clear
4:15 AM 33.1 °F - 31.6 °F 94% 29.89 in 10.0 mi Calm Calm - N/A   Clear
4:35 AM 32.4 °F 27.9 °F 30.9 °F 94% 29.89 in 10.0 mi West 4.6 mph - N/A   Clear
4:55 AM 32.4 °F 26.9 °F 30.9 °F 94% 29.90 in 10.0 mi WNW 5.8 mph - N/A   Clear
5:15 AM 33.3 °F 30.2 °F 31.8 °F 94% 29.90 in 10.0 mi NW 3.5 mph - N/A   Clear
5:35 AM 32.9 °F 29.8 °F 31.5 °F 94% 29.90 in 10.0 mi WNW 3.5 mph - N/A   Clear
5:55 AM 34.3 °F 27.0 °F 32.2 °F 92% 29.92 in 10.0 mi WNW 9.2 mph - N/A   Clear
6:15 AM 36.0 °F 29.6 °F 33.6 °F 91% 29.93 in 10.0 mi NW 8.1 mph - N/A   Clear
6:35 AM 37.9 °F 31.5 °F 34.7 °F 88% 29.93 in 10.0 mi North 9.2 mph - N/A   Clear
6:55 AM 39.4 °F 35.2 °F 33.8 °F 80% 29.94 in 10.0 mi North 5.8 mph - N/A   Clear
7:15 AM 41.9 °F 36.3 °F 35.4 °F 78% 29.95 in 10.0 mi NNW 9.2 mph - N/A   Clear
7:35 AM 42.1 °F 36.6 °F 35.6 °F 78% 29.96 in 10.0 mi North 9.2 mph - N/A   Clear
7:55 AM 42.8 °F 38.0 °F 35.6 °F 76% 29.97 in 10.0 mi North 8.1 mph - N/A   Clear
8:15 AM 43.7 °F 38.6 °F 36.9 °F 77% 29.97 in 10.0 mi NNW 9.2 mph - N/A   Clear
8:35 AM 46.6 °F - 39.0 °F 75% 29.99 in 10.0 mi North 9.2 mph 19.6 mph N/A   Clear
8:55 AM 48.4 °F - 40.5 °F 74% 29.99 in 10.0 mi North 17.3 mph 24.2 mph N/A   Clear
9:15 AM 49.1 °F - 41.0 °F 74% 29.99 in 10.0 mi North 16.1 mph 24.2 mph N/A   Scattered Clouds
9:35 AM 49.8 °F - 40.8 °F 71% 29.99 in 10.0 mi North 13.8 mph 24.2 mph N/A   Clear
9:55 AM 52.2 °F - 41.2 °F 66% 29.99 in 10.0 mi North 17.3 mph 25.3 mph N/A   Scattered Clouds
10:15 AM 51.4 °F - 40.3 °F 66% 29.99 in 10.0 mi NNE 13.8 mph 20.7 mph N/A   Overcast
10:35 AM 52.7 °F - 41.0 °F 64% 30.00 in 10.0 mi North 13.8 mph - N/A   Scattered Clouds
10:55 AM 52.7 °F - 41.0 °F 64% 29.99 in 10.0 mi North 12.7 mph - N/A   Clear
11:15 AM 55.0 °F - 41.4 °F 60% 29.99 in 10.0 mi North 11.5 mph - N/A   Clear
11:35 AM 56.3 °F - 41.2 °F 57% 29.99 in 10.0 mi North 9.2 mph - N/A   Clear
11:55 AM 57.2 °F - 40.3 °F 53% 29.99 in 10.0 mi North 10.4 mph - N/A   Clear
12:15 PM 54.9 °F - 39.2 °F 56% 29.98 in 10.0 mi North 13.8 mph - N/A   Clear
12:35 PM 56.3 °F - 38.5 °F 51% 29.97 in 10.0 mi North 8.1 mph - N/A   Clear
12:55 PM 57.6 °F - 38.1 °F 48% 29.96 in 10.0 mi North 12.7 mph 18.4 mph N/A   Scattered Clouds
1:15 PM 58.1 °F - 39.2 °F 49% 29.94 in 10.0 mi North 6.9 mph - N/A   Mostly Cloudy
1:35 PM 58.1 °F - 38.1 °F 47% 29.93 in 10.0 mi North 10.4 mph - N/A   Overcast
1:55 PM 58.1 °F - 35.6 °F 43% 29.92 in 10.0 mi North 10.4 mph - N/A   Scattered Clouds
2:15 PM 58.1 °F - 36.3 °F 44% 29.92 in 10.0 mi North 8.1 mph - N/A   Clear
2:35 PM 58.8 °F - 36.9 °F 44% 29.92 in 10.0 mi NNW 6.9 mph - N/A   Clear
2:55 PM 59.0 °F - 36.1 °F 42% 29.92 in 10.0 mi NNW 8.1 mph - N/A   Clear
3:15 PM 59.0 °F - 31.8 °F 36% 29.92 in 10.0 mi North 8.1 mph - N/A   Clear
3:35 PM 58.3 °F - 32.0 °F 37% 29.91 in 10.0 mi North 5.8 mph - N/A   Clear
3:55 PM 58.1 °F - 32.2 °F 38% 29.90 in 10.0 mi NNE 4.6 mph - N/A   Clear
4:15 PM 57.7 °F - 32.9 °F 39% 29.91 in 10.0 mi Calm Calm - N/A   Clear
4:35 PM 56.8 °F - 34.5 °F 43% 29.91 in 10.0 mi NE 3.5 mph - N/A   Clear
4:55 PM 55.4 °F - 34.5 °F 45% 29.90 in 7.0 mi Calm Calm - N/A   Clear
5:15 PM 53.6 °F - 34.3 °F 48% 29.90 in 10.0 mi Calm Calm - N/A   Clear
5:35 PM 50.7 °F - 34.5 °F 54% 29.90 in 10.0 mi Calm Calm - N/A   Clear
5:55 PM 48.0 °F - 32.9 °F 56% 29.90 in 10.0 mi SSE 4.6 mph - N/A   Clear
6:15 PM 45.9 °F 44.6 °F 33.3 °F 61% 29.90 in 7.0 mi SSE 3.5 mph - N/A   Clear
6:35 PM 44.1 °F 42.5 °F 32.7 °F 64% 29.90 in 10.0 mi South 3.5 mph - N/A   Clear
6:55 PM 44.1 °F 42.5 °F 32.9 °F 65% 29.91 in 7.0 mi South 3.5 mph - N/A   Clear
7:15 PM 41.9 °F 40.0 °F 32.0 °F 68% 29.91 in 7.0 mi SSE 3.5 mph - N/A   Clear
7:35 PM 40.5 °F 38.4 °F 32.0 °F 72% 29.91 in 10.0 mi South 3.5 mph - N/A   Clear
7:55 PM 38.3 °F - 31.3 °F 76% 29.91 in 10.0 mi Calm Calm - N/A   Clear
8:15 PM 34.7 °F - 30.0 °F 83% 29.91 in 7.0 mi Calm Calm - N/A   Clear
8:35 PM 33.4 °F - 29.3 °F 85% 29.91 in 7.0 mi Calm Calm - N/A   Clear
8:55 PM 32.7 °F - 29.1 °F 87% 29.91 in 10.0 mi Calm Calm - N/A   Clear
9:15 PM 32.2 °F - 29.3 °F 89% 29.91 in 10.0 mi Calm Calm - N/A   Clear
9:35 PM 31.3 °F 27.9 °F 27.9 °F 87% 29.90 in 10.0 mi ENE 3.5 mph - N/A   Clear
9:55 PM 31.1 °F - 28.2 °F 89% 29.90 in 10.0 mi Calm Calm - N/A   Clear
10:15 PM 31.8 °F 27.3 °F 28.2 °F 87% 29.91 in 10.0 mi South 4.6 mph - N/A   Clear
10:35 PM 31.8 °F 28.5 °F 27.9 °F 85% 29.90 in 10.0 mi SE 3.5 mph - N/A   Clear
10:55 PM 32.0 °F - 28.8 °F 88% 29.90 in 10.0 mi Calm Calm - N/A   Clear
11:15 PM 30.0 °F - 27.7 °F 91% 29.90 in 10.0 mi Calm Calm - N/A   Clear
11:35 PM 31.5 °F - 26.8 °F 83% 29.89 in 10.0 mi Calm Calm - N/A   Clear
11:55 PM 28.0 °F - 25.7 °F 91% 29.89 in 10.0 mi Calm Calm - N/A   Clear